Location: *
(58.7167°N, 26.1833°E)
Time: 01:38:50
(UTC+00:00)

Cosmos 1602 Rocket - Pass Details

Date: 25 August 2019
Orbit: 603 x 633 km, 82.5° (Epoch: 19 September)

Event Time Altitude Azimuth Distance (km) Brightness Sun altitude
Rises 22:05:03 0° 345° (NNW) 2,943 8.5 -20.6°
Reaches altitude 10° 22:07:19 10° 342° (NNW) 2,028 7.3 -20.6°
Maximum altitude 22:11:45 64° 262° (W) 701 3.7 -20.7°
Enters shadow 22:12:39 51° 209° (SSW) 796 3.7 -20.7°
